Tracking 23764 objects as of 17-Oct-2021
HD Live streaming from Space Station
objects crossing your sky now

ONEWEB-0320

Track ONEWEB-0320 now!
10-day predictions
ONEWEB-0320 is classified as:


NORAD ID: 49190
Int'l Code: 2021-083E
Perigee: 613.5 km
Apogee: 638.7 km
Inclination: 87.5 °
Period: 97.1 minutes
Semi major axis: 6997 km
RCS: Unknown
Launch date: September 14, 2021
Source: United Kingdom (UK)
Launch site: TYURATAM MISSILE AND SPACE COMPLEX (TTMTR)
aabbcc
Your satellite tracking list
Your tracking list is empty




NASA's NSSDC Master Catalog

Two Line Element Set (TLE):
1 49190U 21083E   21290.16667824 -.01457148  00000-0 -19232+0 0  9999
2 49190  87.5193 317.2563 0017994 181.2082 332.9644 14.83291709  6198
Source of the keplerian elements: AFSPC